Valdosta Regional, GA

10:35 AM EDT on April 23, 2017 (GMT -0400)
Valdosta Regional

Weather History for KVLD - December, 2012

Change the Weather History Date:

Tuesday, December 4, 2012

  Actual Average Record
Temperature  
Mean Temperature 68 °F 55 °F  
Max Temperature 81 °F 67 °F 81 °F (2012)
Min Temperature 55 °F 44 °F 30 °F (2000)
Degree Days  
Heating Degree Days 0 10  
Month to date heating degree days 2 40  
Since 1 July heating degree days 215 271  
Cooling Degree Days 2    
Growing Degree Days 17 (Base 50)    
Moisture  
Dew Point 54 °F    
Average Humidity 64    
Maximum Humidity 93    
Minimum Humidity 35    
Precipitation  
Precipitation 0.00 in 0.11 in 0.10 in (1997)
Month to date precipitation 0.00 0.44  
Year to date precipitation 40.02 47.87  
Sea Level Pressure  
Sea Level Pressure 30.28 in    
Wind  
Wind Speed 2 mph (SE)    
Max Wind Speed 10 mph    
Max Gust Speed 13 mph    
Visibility 6 miles    
Events Fog    
T = Trace of Precipitation, MM = Missing Value Source: NWS Daily Summary

Daily Weather History Graph

Daily Weather History Graph

Search for Another Location

Airport or City:

Trip Planner

Search our weather history database for the weather conditions in past years. The results will help you decide how hot, cold, wet, or windy it might be!

Date:

Astronomy

Dec. 04, 2012 Rise Set
Actual Time 7:15 AM EST 5:31 PM EST
Civil Twilight 6:49 AM EST 5:57 PM EST
Nautical Twilight 6:19 AM EST 6:27 PM EST
Astronomical Twilight 5:50 AM EST 6:56 PM EST
Moon 11:02 PM EST (12/4) 11:22 AM EST (12/4)
Length of Visible Light 11h 08m
Length of Day
10h 15m
Waning Gibbous, 69% of the Moon is Illuminated
Dec 4
Waning Gibbous
Dec 6
Last Quarter
Dec 13
New
Dec 20
First Quarter
Dec 28
Full

Hourly Weather History & Observations

Time (EST) Temp. Dew Point Humidity Pressure Visibility Wind Dir Wind Speed Gust Speed Precip Events Conditions
12:17 AM 57.2 °F 53.6 °F 88% 30.28 in 1.5 mi Calm Calm - N/A   Partly Cloudy
12:19 AM 57.2 °F 53.6 °F 88% 30.28 in 0.8 mi Calm Calm - N/A   Mist
12:30 AM 59.0 °F 55.4 °F 88% 30.28 in 3.0 mi Calm Calm - N/A   Scattered Clouds
12:46 AM 57.2 °F 53.6 °F 88% 30.27 in 1.8 mi Calm Calm - N/A   Partly Cloudy
12:49 AM 57.2 °F 53.6 °F 88% 30.27 in 0.8 mi Calm Calm - N/A   Mist
12:53 AM 57.9 °F 54.0 °F 87% 30.30 in 0.2 mi Calm Calm - N/A Fog Fog
1:02 AM 57.2 °F 53.6 °F 88% 30.27 in 0.5 mi Calm Calm - N/A Fog Fog
1:07 AM 57.2 °F 53.6 °F 88% 30.27 in 1.2 mi Calm Calm - N/A   Partly Cloudy
1:09 AM 57.2 °F 53.6 °F 88% 30.27 in 3.0 mi Calm Calm - N/A   Haze
1:24 AM 57.2 °F 53.6 °F 88% 30.27 in 1.8 mi Calm Calm - N/A   Partly Cloudy
1:40 AM 57.2 °F 53.6 °F 88% 30.26 in 2.5 mi Calm Calm - N/A   Clear
1:46 AM 57.2 °F 53.6 °F 88% 30.27 in 3.0 mi Calm Calm - N/A   Partly Cloudy
1:53 AM 55.9 °F 52.0 °F 87% 30.29 in 5.0 mi Calm Calm - N/A   Scattered Clouds
2:00 AM 55.4 °F 51.8 °F 88% 30.26 in 2.0 mi Calm Calm - N/A   Mostly Cloudy
2:02 AM 55.4 °F 51.8 °F 88% 30.27 in 0.5 mi Calm Calm - N/A Fog Fog
2:10 AM 55.4 °F 51.8 °F 88% 30.26 in 0.2 mi Calm Calm - N/A Fog Fog
2:22 AM 55.4 °F 53.6 °F 94% 30.26 in 0.2 mi Calm Calm - N/A Fog Fog
2:30 AM 55.4 °F 53.6 °F 94% 30.26 in 1.0 mi Calm Calm - N/A   Mist
2:33 AM 55.4 °F 53.6 °F 94% 30.26 in 2.0 mi Calm Calm - N/A   Scattered Clouds
2:40 AM 55.4 °F 51.8 °F 88% 30.26 in 4.0 mi Calm Calm - N/A   Scattered Clouds
2:53 AM 55.0 °F 52.0 °F 89% 30.28 in 4.0 mi Calm Calm - N/A   Partly Cloudy
3:53 AM 55.9 °F 52.0 °F 87% 30.28 in 6.0 mi Calm Calm - N/A   Mostly Cloudy
4:53 AM 57.0 °F 53.1 °F 87% 30.28 in 7.0 mi Calm Calm - N/A   Overcast
5:53 AM 57.9 °F 54.0 °F 87% 30.30 in 8.0 mi Calm Calm - N/A   Overcast
6:53 AM 57.9 °F 55.0 °F 90% 30.31 in 9.0 mi Calm Calm - N/A   Mostly Cloudy
7:53 AM 61.0 °F 57.0 °F 87% 30.33 in 9.0 mi Calm Calm - N/A   Overcast
8:53 AM 62.1 °F 57.9 °F 86% 30.35 in 10.0 mi Calm Calm - N/A   Mostly Cloudy
9:53 AM 66.0 °F 60.1 °F 81% 30.37 in 10.0 mi South 3.5 mph - N/A   Overcast
10:53 AM 70.0 °F 60.1 °F 71% 30.36 in 10.0 mi South 3.5 mph - N/A   Overcast
11:53 AM 75.0 °F 57.9 °F 55% 30.34 in 10.0 mi South 6.9 mph - N/A   Mostly Cloudy
1:53 PM 79.0 °F 51.1 °F 38% 30.27 in 10.0 mi SE 3.5 mph - N/A   Scattered Clouds
2:53 PM 79.0 °F 48.9 °F 35% 30.26 in 10.0 mi ESE 6.9 mph - N/A   Scattered Clouds
3:53 PM 78.1 °F 50.0 °F 37% 30.26 in 10.0 mi ESE 3.5 mph - N/A   Scattered Clouds
4:53 PM 75.0 °F 53.1 °F 46% 30.26 in 10.0 mi Calm Calm - N/A   Mostly Cloudy
5:53 PM 66.9 °F 54.0 °F 63% 30.26 in 10.0 mi Calm Calm - N/A   Mostly Cloudy
6:53 PM 66.9 °F 55.9 °F 68% 30.26 in 10.0 mi ESE 4.6 mph - N/A   Overcast
7:53 PM 66.9 °F 55.0 °F 66% 30.26 in 10.0 mi East 3.5 mph - N/A   Partly Cloudy
8:53 PM 66.0 °F 55.9 °F 70% 30.26 in 10.0 mi ESE 3.5 mph - N/A   Clear
9:53 PM 64.9 °F 54.0 °F 68% 30.27 in 10.0 mi ESE 3.5 mph - N/A   Clear
10:53 PM 62.1 °F 53.1 °F 72% 30.27 in 10.0 mi Calm Calm - N/A   Clear
11:53 PM 60.1 °F 53.1 °F 78% 30.27 in 10.0 mi Calm Calm - N/A   Clear